Flag for United Kingdom Weather past 2 weeks in Durham, England, United Kingdom

Now
46 °F

Clear.


Feels Like: 45 °F
Forecast: 43 / 62 °F
Wind: 3 mph from Southwest

Location: Newcastle

Current Time: Aug 23, 2014 at 4:47:10 AM

Latest Report: Aug 23, 2014 at 4:20 AM


Visibility: 10 mi

Pressure: 29.86 "Hg

Humidity: 93%

Dew point: 45 °F

Location of DurhamLocation

Historic Weather in Durham — Graph

°F

Durham temperature yesterday

Maximum temperature yesterday: 61 °F (at 3:20 PM)
Minimum temperature yesterday: 43 °F (at 5:20 AM)
Average temperature yesterday: 52 °F

Past Weeks' High & Low Weather Summary

 TemperatureHumidityPressure
High70 °F (Aug 8, 1:50 PM)100% (Aug 8, 5:20 AM)30.07 "Hg (Aug 8, 5:20 AM)
Low43 °F (Aug 22, 5:20 AM)45% (Aug 18, 3:20 PM)29.18 "Hg (Aug 10, 6:20 PM)
Average56 °F78%29.69 "Hg
* Reported Aug 8 3:50 AM — Aug 23 3:20 AM, Durham, Weather by CustomWeather, © 2014

Note: Actual official high and low records may vary slightly from our data, if they occured in-between our weather recording intervals... More about our weather records

Advertising

Durham weather history for previous 24 hours

 ConditionsComfort  
Time TempWeatherWind HumidityBarometerVisibility
3:20 AM
Aug 23
46 °FClear.6 mph93%29.86 "Hg10 mi
2:50 AM48 °FPassing clouds.7 mph87%29.86 "HgN/A
2:20 AM48 °FPassing clouds.6 mph87%29.86 "HgN/A
1:50 AM50 °FSprinkles. Passing clouds.7 mph82%29.86 "HgN/A
1:20 AM50 °FPassing clouds.8 mph82%29.86 "HgN/A
12:50 AM48 °FPassing clouds.6 mph87%29.86 "HgN/A
12:20 AM48 °FPassing clouds.3 mph87%29.86 "HgN/A
11:50 PM
Aug 22
50 °FPassing clouds.6 mph88%29.86 "HgN/A
11:20 PM50 °FPassing clouds.6 mph88%29.86 "HgN/A
10:50 PM48 °FPassing clouds.7 mph94%29.86 "HgN/A
10:20 PM48 °FClear.6 mph94%29.86 "Hg10 mi
9:50 PM50 °FClear.2 mph88%29.86 "Hg10 mi
9:20 PM52 °FScattered clouds.2 mph77%29.86 "HgN/A
8:50 PM52 °FPassing clouds.3 mph77%29.83 "HgN/A
8:20 PM52 °FPassing clouds.3 mph77%29.83 "HgN/A
7:50 PM54 °FScattered showers. Passing clouds.6 mph72%29.83 "HgN/A
6:50 PM55 °FPassing clouds.15 mph67%29.83 "HgN/A
6:20 PM55 °FPassing clouds.14 mph63%29.83 "HgN/A
5:50 PM57 °FPassing clouds.15 mph59%29.83 "HgN/A
5:20 PM59 °FPassing clouds.13 mph59%29.83 "HgN/A
4:50 PM57 °FPassing clouds.9 mph55%29.80 "HgN/A
4:20 PM59 °FPassing clouds.7 mph55%29.80 "HgN/A
3:50 PM59 °FPassing clouds.8 mph51%29.83 "HgN/A
3:20 PM61 °FPassing clouds.10 mph48%29.83 "HgN/A
2:50 PM59 °FPassing clouds.9 mph55%29.83 "HgN/A
2:20 PM59 °FPassing clouds.9 mph51%29.83 "HgN/A
1:50 PM57 °FPassing clouds.9 mph59%29.83 "HgN/A
1:20 PM57 °FPassing clouds.9 mph59%29.83 "HgN/A
12:50 PM57 °FPassing clouds.10 mph59%29.80 "HgN/A
12:20 PM57 °FPassing clouds.10 mph59%29.80 "HgN/A
11:50 AM57 °FPassing clouds.8 mph63%29.80 "HgN/A
11:20 AM55 °FPassing clouds.9 mph67%29.80 "HgN/A
10:50 AM57 °FPassing clouds.9 mph63%29.80 "HgN/A
10:20 AM55 °FPassing clouds.10 mph72%29.80 "HgN/A
9:20 AM52 °FPassing clouds.8 mph82%29.80 "HgN/A
8:50 AM50 °FPassing clouds.9 mph82%29.77 "HgN/A
8:20 AM50 °FPassing clouds.9 mph88%29.77 "HgN/A
7:50 AM50 °FPassing clouds.8 mph88%29.77 "HgN/A
6:50 AM46 °FPassing clouds.8 mph93%29.77 "HgN/A
6:20 AM45 °FPassing clouds.6 mph93%29.74 "HgN/A
5:50 AM43 °FClear.6 mph100%29.74 "Hg10 mi
5:20 AM43 °FClear.6 mph100%29.74 "Hg10 mi
4:50 AM45 °FClear.3 mph93%29.74 "Hg10 mi
4:20 AM45 °FClear.5 mph93%29.74 "Hg10 mi
Weather by CustomWeather, © 2014

See weather overviewHow to use our weather pages